FW1436 Weather Reports


Display with metric or nautical units.
time (UTC)temp
F
wind
direction
speed
MPH
gust
MPH
rain 1hr
in
rain 24hr
in
rain mn
in
humidity
%
barometer
mb
20260505124505 63 247 3.0 14.0 0.00 0.00 0.00 43 1009.3
20260505123102 62 240 4.0 14.0 0.00 0.00 0.00 45 1009.4
20260505121558 61 247 2.0 11.0 0.00 0.00 0.00 45 1009.5
20260505120059 62 258 4.0 11.0 0.00 0.00 0.00 44 1009.4
20260505114559 61 311 0.0 10.0 0.00 0.00 0.00 47 1009.6
20260505113056 62 275 3.0 13.0 0.00 0.00 0.00 45 1009.8
20260505111551 61 285 3.0 11.0 0.00 0.00 0.00 44 1009.9
20260505101601 60 290 2.0 9.0 0.00 0.00 0.00 49 1010.3
20260505100100 59 324 1.0 6.0 0.00 0.00 0.00 50 1010.4
20260505094543 60 189 2.0 6.0 0.00 0.00 0.00 49 1010.2
20260505093042 59 267 0.0 5.0 0.00 0.00 0.00 51 1010.3
20260505091539 58 252 0.0 3.0 0.00 0.00 0.00 55 1010.4
20260505090040 57 298 1.0 3.0 0.00 0.00 0.00 54 1010.3
20260505084536 57 222 0.0 3.0 0.00 0.00 0.00 57 1010.3
20260505083036 57 229 2.0 4.0 0.00 0.00 0.00 59 1010.3
20260505081531 56 109 2.0 10.0 0.00 0.00 0.00 66 1010.4
20260505080027 54 107 2.0 8.0 0.00 0.00 0.00 71 1010.4
20260505074526 55 100 0.0 5.0 0.00 0.00 0.00 68 1010.5
20260505073034 53 148 0.0 1.0 0.00 0.00 0.00 70 1010.5
20260505071524 52 217 0.0 0.0 0.00 0.00 0.00 75 1010.5
20260505070024 51 156 0.0 2.0 0.00 0.00 0.00 77 1010.3
20260505064524 50 115 0.0 3.0 0.00 0.00 0.00 80 1010.3
20260505063021 50 99 2.0 4.0 0.00 0.00 0.00 79 1010.2
20260505061525 49 119 0.0 1.0 0.00 0.00 0.00 79 1010.2
20260505060020 49 158 0.0 0.0 0.00 0.00 0.00 80 1010.2
20260505054519 49 158 0.0 0.0 0.00 0.00 0.00 80 1010.1
20260505053033 49 162 0.0 0.0 0.00 0.00 0.00 79 1009.9
20260505051534 49 162 0.0 0.0 0.00 0.00 0.00 77 1009.7
20260505041520 49 236 0.0 1.0 0.00 0.00 0.00 75 1009.7
20260505040015 49 82 0.0 0.0 0.00 0.00 0.00 82 1009.8
20260505034512 49 20 0.0 0.0 0.00 0.00 0.00 82 1009.7
20260505033009 51 240 0.0 0.0 0.00 0.00 0.00 79 1009.8
20260505031509 51 245 0.0 0.0 0.00 0.00 0.00 68 1009.7
20260505030007 52 245 0.0 1.0 0.00 0.00 0.00 67 1009.8
20260505024507 51 233 0.0 1.0 0.00 0.00 0.00 70 1009.9
20260505023012 51 233 0.0 0.0 0.00 0.00 0.00 76 1009.9
20260505021505 53 233 0.0 2.0 0.00 0.00 0.00 66 1009.9
20260505020003 51 267 0.0 0.0 0.00 0.00 0.00 73 1010.0
20260505014502 51 127 0.0 1.0 0.00 0.00 0.00 77 1010.1
20260505013059 52 127 0.0 1.0 0.00 0.00 0.00 71 1010.1
20260505011558 52 255 0.0 1.0 0.00 0.00 0.00 68 1010.1
20260505010116 52 237 0.0 0.0 0.00 0.00 0.00 68 1010.1
20260505004556 52 237 0.0 2.0 0.00 0.00 0.00 68 1010.2
20260505003058 52 229 0.0 2.0 0.00 0.00 0.00 69 1010.4
20260505001552 53 114 0.0 1.0 0.00 0.00 0.00 70 1010.5
20260505000050 54 259 0.0 1.0 0.00 0.00 0.00 64 1010.4
20260504234548 54 297 0.0 2.0 0.00 0.00 0.00 62 1010.4
20260504233048 54 292 0.0 2.0 0.00 0.00 0.00 63 1010.4
20260504231548 54 290 0.0 4.0 0.00 0.00 0.00 64 1010.3
20260504230049 54 291 1.0 4.0 0.00 0.00 0.00 65 1010.3
20260504224544 54 254 0.0 2.0 0.00 0.00 0.00 67 1010.2
20260504223057 54 243 0.0 3.0 0.00 0.00 0.00 67 1010.3
20260504221555 54 274 0.0 5.0 0.00 0.00 0.00 67 1010.4
20260504220038 55 261 0.0 3.0 0.00 0.00 0.00 67 1010.5
20260504214536 55 279 0.0 4.0 0.00 0.00 0.00 66 1010.5
20260504213047 55 249 0.0 4.0 0.00 0.00 0.00 65 1010.6
20260504211539 56 272 1.0 5.0 0.00 0.00 0.00 62 1010.5
20260504210033 56 298 2.0 5.0 0.00 0.00 0.00 61 1010.3
20260504204531 57 293 1.0 5.0 0.00 0.00 0.00 60 1010.2
20260504203043 57 301 3.0 13.0 0.00 0.00 0.00 56 1010.1
20260504201529 57 304 2.0 11.0 0.00 0.00 0.00 61 1009.9
20260504200029 56 250 2.0 7.0 0.00 0.00 0.00 65 1009.9
20260504194534 56 293 2.0 8.0 0.00 0.00 0.00 66 1009.8
20260504193026 57 252 2.0 6.0 0.00 0.00 0.00 63 1009.5
20260504191535 57 307 1.0 5.0 0.00 0.00 0.00 62 1009.2
20260504190024 57 278 1.0 7.0 0.00 0.00 0.00 61 1009.2
20260504184524 58 266 1.0 7.0 0.00 0.00 0.00 60 1009.1
20260504183024 59 311 2.0 6.0 0.00 0.00 0.00 59 1009.2
20260504181524 58 276 3.0 11.0 0.00 0.00 0.00 61 1009.1
20260504180023 59 275 4.0 10.0 0.00 0.00 0.00 60 1009.0
20260504174522 59 315 5.0 10.0 0.00 0.00 0.00 59 1009.0
20260504173022 60 315 5.0 12.0 0.00 0.00 0.00 59 1008.9
20260504171529 61 328 5.0 9.0 0.00 0.00 0.00 59 1008.7